Regional Weather Roundup
Issued by NWS Wakefield, VA

Home | Current Version | Previous Version | Text Only | Print | Product List | Glossary On
Versions: 1 2 3 4 5 6 7 8 9 10 11 12 13 14 15 16 17 18 19 20 21 22 23 24 25 26 27 28 29 30 31 32 33 34 35 36 37 38 39 40 41 42 43 44 45 46 47 48 49 50
399
ASUS41 KAKQ 280815
RWRAKQ

REGIONAL WEATHER ROUNDUP
NATIONAL WEATHER SERVICE WAKEFIELD VA
400 AM EDT WED JUN 28 2017

Note: "fair" indicates few or no clouds below 12,000 feet with no
significant weather and/or obstructions to visibility. * = Denotes
station may not report precipitation (e.g., rain,snow,etc.),
thunder or fog.

VAZ042-051-052>054-056-280900-
NORTHERN VIRGINIA

CITY           SKY/WX    TMP DP  RH WIND       PRES   REMARKS
WASH NATIONAL  PTCLDY    66  49  54 NW3       30.12S
DULLES         CLEAR     53  47  79 CALM      30.13R
FORT BELVOIR   CLEAR     53  50  88 CALM      30.12R
QUANTICO       PTCLDY    58  55  90 NW9       30.13R
FREDERICKSBRG* CLEAR     56  52  85 CALM      30.13R
STAFFORD*      CLEAR     50  50 100 CALM      30.17R
WARRENTON      PTCLDY    48  45  89 CALM      30.13R
CULPEPER*      CLEAR     51  50  97 CALM      30.14S
MANASSAS*      CLEAR     52  50  93 CALM      30.14R
LEESBURG*      CLEAR     59  50  72 CALM      30.14S
WINCHESTER     CLEAR     50  46  87 CALM      30.14R
FRONT ROYAL*   SUNNY     52  48  87 S5        30.14R
LURAY*         SUNNY     52  50  93 CALM      30.16R
$$

VAZ048-049-060>072-079>083-280900-
CENTRAL AND SOUTH CENTRAL VIRGINIA

CITY           SKY/WX    TMP DP  RH WIND       PRES   REMARKS
RICHMOND       CLEAR     61  52  72 N6        30.13R
CHESTERFIELD*  FAIR      55  52  89 NW5       30.14R
PETERSBURG*    CLEAR     54  51  90 CALM      30.14R
HANOVER        CLEAR     55  50  83 CALM      30.14R
TAPPAHANNOCK*  CLEAR     56  56  99 CALM      30.13R
QUINTON*       FAIR      57  55  94 CALM      30.13R
CHARLOTTSVILLE CLEAR     58  50  75 CALM      30.14R
GORDONSVILLE*  SUNNY     51  50  97 CALM      30.14R
ORANGE*        CLEAR     50  50 100 CALM      30.14R
LOUISA*        CLEAR     52  48  87 CALM      30.13R
BUMPASS*       FAIR      55  51  86 CALM      30.14R
FARMVILLE*     CLEAR     52  50  92 CALM      30.14R
CREWE*         FAIR      54  50  87 NW3       30.14R
FORT PICKETT*  FAIR      59  51  73 N5        30.14R
CHASE CITY*    FAIR      63  50  63 CALM      30.14S
CLARKSVILLE*   FAIR      63  54  72 NE3       30.14R
SOUTH HILL*    CLEAR     58  55  87 N6        30.19R
LAWRENCEVILLE* FAIR      62  52  69 CALM      30.13R
EMPORIA*       CLEAR     57  54  88 NW6       30.14R
$$

VAZ088>098-280900-
SOUTHEAST VIRGINIA

CITY           SKY/WX    TMP DP  RH WIND       PRES   REMARKS
NORFOLK        CLEAR     74  63  68 N12G18    30.09R
VIRGINIA BEACH CLEAR     61  58  90 CALM      30.08R
NORFOLK NAVAL  PTCLDY    73  58  59 N13       30.11R
WEST POINT*    CLEAR     58  56  92 CALM      30.13S
SALUDA*        FAIR      68  53  59 N7        30.11R
NEWPORT NEWS   CLEAR     65  53  65 N8        30.10R
LANGLEY AFB    CLEAR     70  55  58 N8        30.09R
FORT EUSTIS    CLEAR     67  52  59 N7        30.09R
WILLIAMSBURG*  CLEAR     64  55  72 CALM      30.12R
HR EXEC AP*    FAIR      55  52  88 CALM      30.08R
FRANKLIN*      NOT AVBL
US460-WAKEFLD  CLEAR     58  56  93 CALM      30.12R
$$

VAZ020-022-025-037-045-280900-
WEST CENTRAL AND SOUTHWEST VIRGINIA

CITY           SKY/WX    TMP DP  RH WIND       PRES   REMARKS
STAUNTON*      CLEAR     46  44  93 CALM      30.19R
WAYNESBORO*    SUNNY     49  49  99 CALM      30.17R
HOT SPRINGS VA CLEAR     52  39  62 CALM      30.22S
LYNCHBURG      CLEAR     52  48  86 S6        30.16R
DANVILLE       CLEAR     53  53 100 CALM      30.15R
SOUTH BOSTON*  FAIR      55  53  95 CALM      30.15R
MARTINSVILLE   CLEAR     50  50  97 CALM      30.19S
ROANOKE        CLEAR     55  48  77 CALM      30.20R
BLACKSBURG     CLEAR     49  47  90 CALM      30.23S
DUBLIN*        CLEAR     50  45  83 CALM      30.21S
MARION*        CLEAR     48  44  88 CALM      30.24R
HILLSVILLE*    CLEAR     51  45  80 CALM      30.21S
RICHLANDS*     FAIR      51  17  25 CALM      30.22R
WISE*          CLEAR     54  45  71 CALM      30.22S
ABINGDON*      CLEAR     55  51  87 E5        30.20S
$$

MDZ021>025-VAZ099-100-280900-
SOUTHERN MARYLAND AND THE DELMARVA PENINSULA

CITY           SKY/WX    TMP DP  RH WIND       PRES   REMARKS
PATUXENT RIVER CLEAR     67  51  56 N9        30.11R
BAY BRIDGE APT CLEAR     66  52  59 NW7       30.11S
LEONARDTOWN    PTCLDY    55  50  82 CALM      30.13S
DOVER          CLEAR     63  52  68 W6        30.09S
GEORGETOWN     CLEAR     61  52  72 CALM      30.11R
EASTON         CLEAR     60  50  71 CALM      30.15R
CAMBRIDGE      CLEAR     64  52  63 N6        30.11R
SALISBURY      PTCLDY    60  53  77 NW5       30.11R
OCEAN CITY     CLEAR     60  52  74 N7        30.10R
WALLOPS ISLAND PTCLDY    62  55  77 NW8       30.11R
ACCOMACK*      CLEAR     65  56  71 N7        30.11R
$$

NCZ012>017-030>032-280900-
NORTH CENTRAL AND EASTERN NORTH CAROLINA

CITY           SKY/WX    TMP DP  RH WIND       PRES   REMARKS
ROANOKE RAPIDS FAIR      59  55  88 CALM      30.12R
RALEIGH        PTCLDY    58  56  93 CALM      30.14R
ELIZABETH CITY CLEAR     61  61 100 W3        30.09R
AHOSKIE*         N/A     55  54  95 CALM      30.11R
EDENTON*       CLEAR     63  59  88 CALM      30.10R
CURRITUCK*     CLEAR    N/A N/A N/A CALM      30.09S
KILL DEVIL HLS CLEAR     71  62  73 NW3       30.07S
MANTEO         CLEAR     70  60  69 N5        30.09R
CAPE HATTERAS  NOT AVBL
TARBORO*       NOT AVBL
GOLDSBORO      CLEAR     64  62  93 NW5       30.09S
WASHINGTON       N/A    N/A N/A N/A CALM      30.10S
GREENVILLE     FOG       59  59 100 CALM      30.11S VSB 1/2
NEW BERN       PTCLDY    63  61  93 CALM      30.11S
WILMINGTON     CLEAR     67  60  78 NE7       30.09S
$$

VAZ048-280900-
ELSEWHERE

CITY           SKY/WX    TMP DP  RH WIND       PRES   REMARKS
HARRISBURG PA  CLEAR     56  52  86 N3        30.11R
BALTIMORE      CLEAR     56  50  80 CALM      30.12R
ANNAPOLIS      CLEAR     61  54  77 W5        30.11R
ANDREWS AFB    CLEAR     56  48  74 CALM      30.11S
PHILADELPHIA   CLEAR     63  49  60 W10       30.10R
HENDERSON NC   CLEAR     59  51  74 N3        30.14R
GREENSBORO     PTCLDY    63  54  72 N3        30.15R
ROCKY MOUNT    CLEAR     58  58 100 CALM      30.11R
$$

VAZ100-280900-
MARINE

STATION/POSITION TIME  TEMP    WIND        PRES    WAVE   SWELL
                       AIR SEA DIR/SP/G            HT/PER HT/PER
                 (UTC) (F)     (DEG/KT/KT) (MB)    (FT/S) (FT/S)
BRANDYWINE LGT   0736   69     350/ 21/ 26 1019.0R
CAPE MAY NJ      0736   68 68  330/  1/  4 1018.4R
LEWES DE         0736   69 70  330/ 15/ 18 1018.9R
15NM E FENWICK I 0750   68 67  330/ 16/ 19 1018.7R   2/ 3
OCEAN-CITY-INLET 0736   67 67  360/ 10/ 13 1019.1R
WACHAPREAGUE VA  0736   67 76  350/  4/  6 1019.1R
THOMAS POINT MD  0800   66 76  320/  8/  9   N/A
GOOSES REEF MD   0800   71 77   20/ 16/ 17 1020.4    2/ 2
COVE POINT MD    0736   70      10/ 14/ 19 1020.1R
SOLOMONS ISLAND  0736   68 79  350/  8/ 10   N/A
BISHOPS HEAD MD  0736   66 75  340/  5/  6 1019.4R
PINEY POINT MD   0736           20/  7/  8   N/A
POTOMAC MD       0800   70 78  350/ 10/ 12 1018.7    1
CAMBRIDGE MD     0736   69 81              1020.0R
LEWISETTA VA     0736   70 78   30/  7/ 10 1019.5R
RAPPAHANNOCK LGT 0736           10/ 17/ 21 1019.7R
STINGRAY PT      0750   73      20/ 16/ 17 1019.0R
YORK RVR RNG VA  0736   72      10/ 18/ 21 1019.2R
YORKTOWN VA      0736   69 78  340/  9/ 10 1019.2R
JAMESTOWN VA     0800   67 82  340/  4/  6   N/A     0
DOMINION TERM VA 0736   70      70/  2/  5 1019.0R
KIPTOPEKE VA     0736      74   20/  7/ 10   N/A
CHES BAY BRIDGE  0736   74 71   30/ 19/ 21 1018.4R
CAPE HENRY VA    0736   73     360/ 17/ 20   N/A
WILLOUBY STN VA  0736   73     360/ 14/ 16 1018.5R
S CRANEY ISL VA  0736   73      10/ 12/ 14 1018.5R
CAPE HENRY BUOY  0800      72                N/A     1/ 8
1ST LANDING BUOY 0800   74 74              1019.1    1/ 3
CAPE CHARLES BUO 0751      69                N/A     1/ 8
64NM E OF VA BCH 0750   74 74  360/  6/  6 1018.6S   1/ 7   2/ 7
DUCK PIER NC     0736   74 74  330/  9/ 10 1018.0S
44100 DUCK FRF   0705      73                N/A     1/ 8
OREGON INLET NC  0736   70 77  350/  2/  3 1018.4R
HATTERAS NC      0736   77 79   10/ 13/ 16 1018.2R
DIAMOND SHLS NC  0750   77 81  360/ 14/ 16 1017.9R   2/ 3   2/ 7
CAPE LOOKOUT NC  0800   75      10/  8/ 11 1018.4R
$$




USA.gov is the U.S. government's official web portal to all federal, state and local government web resources and services.